{"data":{"norad_id":66838,"intl_designator":"2025-280T","name":"STARLINK-35886","alt_names":[],"object_type":"PAYLOAD","status":"ACTIVE","operator":null,"country":"US","launch_date":"2025-12-02","launch_site_code":"AFWTR","launch_vehicle":null,"mission":null,"orbit_class":"UNKNOWN","rcs_meters":null,"size_class":null,"mass_kg":null,"dimensions":null,"purposes":["comms"],"wikipedia_slug":null,"has_3d_model":false,"image_url":null,"decayed_at":null,"tle_current":{"epoch":"2026-05-25T00:42:35.301600Z","epoch_age_seconds":79763,"freshness":"FRESH","line1":"1 66838U 25280T   26145.02957525 -.00002304  00000+0 -18537-3 0  9998","line2":"2 66838  70.0005 141.8633 0003703 268.3858  91.6877 14.98321008 27513","mean_motion":14.98321008,"eccentricity":0.0003703,"inclination_deg":70.0005,"raan_deg":141.8633,"arg_perigee_deg":268.3858,"mean_anomaly_deg":91.6877,"bstar":-0.00018537,"rev_number":2751,"period_min":96.107575900718,"perigee_km":569.51003137722,"apogee_km":574.65736482624,"semimajor_km":6950.2206981017,"source":"CELESTRAK","updated_at":"2026-05-25T13:38:21.337354Z"}}}